This is the latest recevied weather packets stored in our database for station/object N1HRK. If no packets are shown the sender has not sent any weather packets the latest 10 day(s).
| Time | Temp. | Humidity | Pressure | Rain* | Wind** | Luminosity | Snow |
|---|---|---|---|---|---|---|---|
| 1777666923 | 17.22° C | 33% | 1008.6 hPa | 0 mm | - | - | - |
| 1777666323 | 17.22° C | 33% | 1008.6 hPa | 0 mm | - | - | - |
| 1777665752 | 17.22° C | 32% | 1008.7 hPa | 0 mm | - | - | - |
| 1777665722 | 17.22° C | 32% | 1008.7 hPa | 0 mm | - | - | - |
| 1777665124 | 17.22° C | 34% | 1008.6 hPa | 0 mm | - | - | - |
| 1777664524 | 16.67° C | 35% | 1008.6 hPa | 0 mm | - | - | - |
| 1777663954 | 16.67° C | 34% | 1008.8 hPa | 0 mm | - | - | - |
| 1777663922 | 16.67° C | 36% | 1008.8 hPa | 0 mm | - | - | - |
| 1777663323 | 16.67° C | 34% | 1008.8 hPa | 0 mm | - | - | - |
| 1777662724 | 17.22° C | 34% | 1008.9 hPa | 0 mm | - | - | - |
| 1777662123 | 16.67° C | 38% | 1008.8 hPa | 0 mm | - | - | - |
| 1777661523 | 16.67° C | 37% | 1008.9 hPa | 0 mm | - | - | - |
| 1777660924 | 16.67° C | 38% | 1009 hPa | 0 mm | - | - | - |
| 1777660324 | 16.11° C | 38% | 1009.2 hPa | 0 mm | - | - | - |
| 1777659723 | 16.67° C | 37% | 1009.1 hPa | 0 mm | - | - | - |
| 1777659154 | 16.11° C | 37% | 1009.2 hPa | 0 mm | - | - | - |
| 1777659123 | 16.11° C | 37% | 1009.2 hPa | 0 mm | - | - | - |
| 1777658553 | 16.11° C | 40% | 1009.2 hPa | 0 mm | - | - | - |
| 1777658522 | 16.11° C | 40% | 1009.2 hPa | 0 mm | - | - | - |
| 1777657924 | 16.11° C | 43% | 1009.4 hPa | 0 mm | - | - | - |
| 1777657324 | 16.11° C | 46% | 1009.5 hPa | 0 mm | - | - | - |
| 1777656724 | 16.11° C | 40% | 1009.6 hPa | 0 mm | - | - | - |
| 1777656123 | 15.56° C | 44% | 1009.8 hPa | 0 mm | - | - | - |
| 1777655523 | 15.56° C | 45% | 1009.7 hPa | 0 mm | - | - | - |
| 1777654923 | 15.56° C | 48% | 1009.9 hPa | 0 mm | - | - | - |
* Rain latest hour (hover to see other rain measurements)
** Current wind speed in m/s (hover to see current wind gust speed)